| time (UTC) | temp F | wind direction | speed MPH | gust MPH | rain 1hr in | rain 24hr in | rain mn in | humidity % | barometer mb |
| 20260906002630 | 91 | 59 | 1.0 | 8.0 | 0.00 | 0.00 | 0.00 | 66 | 1013.4 |
| 20260906002132 | 91 | 127 | 2.0 | 8.0 | 0.00 | 0.00 | 0.00 | 66 | 1013.4 |
| 20260906001636 | 92 | 122 | 4.0 | 7.0 | 0.00 | 0.00 | 0.00 | 65 | 1013.3 |
| 20260906001133 | 92 | 151 | 2.0 | 7.0 | 0.00 | 0.00 | 0.00 | 65 | 1013.2 |
| 20260906000639 | 92 | 92 | 1.0 | 6.0 | 0.00 | 0.00 | 0.00 | 65 | 1013.2 |
| 20260906000123 | 93 | 166 | 2.0 | 7.0 | 0.00 | 0.00 | 0.00 | 64 | 1013.2 |
| 20260905235628 | 93 | 163 | 1.0 | 7.0 | 0.00 | 0.00 | 0.00 | 63 | 1013.2 |
| 20260905235125 | 93 | 96 | 1.0 | 5.0 | 0.00 | 0.00 | 0.00 | 64 | 1013.2 |
| 20260905234646 | 93 | 186 | 2.0 | 5.0 | 0.00 | 0.00 | 0.00 | 63 | 1013.3 |
| 20260905234123 | 93 | 19 | 0.0 | 5.0 | 0.00 | 0.00 | 0.00 | 63 | 1013.2 |
| 20260905233648 | 93 | 63 | 2.0 | 8.0 | 0.00 | 0.00 | 0.00 | 63 | 1013.2 |
| 20260905233130 | 93 | 202 | 2.0 | 8.0 | 0.00 | 0.00 | 0.00 | 62 | 1013.2 |
| 20260905232633 | 93 | 196 | 4.0 | 7.0 | 0.00 | 0.00 | 0.00 | 61 | 1013.2 |
| 20260905232153 | 94 | 97 | 2.0 | 6.0 | 0.00 | 0.00 | 0.00 | 62 | 1013.2 |
| 20260905231620 | 93 | 148 | 1.0 | 5.0 | 0.00 | 0.00 | 0.00 | 62 | 1013.2 |
| 20260905231140 | 93 | 174 | 1.0 | 5.0 | 0.00 | 0.00 | 0.00 | 61 | 1013.2 |
| 20260905230625 | 93 | 194 | 1.0 | 7.0 | 0.00 | 0.00 | 0.00 | 61 | 1013.2 |
| 20260905230124 | 94 | 125 | 3.0 | 10.0 | 0.00 | 0.00 | 0.00 | 60 | 1013.2 |
| 20260905225627 | 93 | 36 | 3.0 | 10.0 | 0.00 | 0.00 | 0.00 | 61 | 1013.2 |
| 20260905225126 | 93 | 125 | 3.0 | 8.0 | 0.00 | 0.00 | 0.00 | 61 | 1013.2 |
| 20260905224632 | 93 | 175 | 2.0 | 8.0 | 0.00 | 0.00 | 0.00 | 61 | 1013.2 |
| 20260905224128 | 93 | 137 | 4.0 | 9.0 | 0.00 | 0.00 | 0.00 | 62 | 1013.2 |
| 20260905223633 | 93 | 107 | 2.0 | 12.0 | 0.00 | 0.00 | 0.00 | 62 | 1013.1 |
| 20260905223131 | 93 | 217 | 5.0 | 12.0 | 0.00 | 0.00 | 0.00 | 61 | 1013.1 |
| 20260905222636 | 93 | 71 | 4.0 | 12.0 | 0.00 | 0.00 | 0.00 | 61 | 1013.0 |
| 20260905222114 | 93 | 55 | 2.0 | 12.0 | 0.00 | 0.00 | 0.00 | 62 | 1012.9 |
| 20260905221642 | 93 | 216 | 4.0 | 8.0 | 0.00 | 0.00 | 0.00 | 61 | 1012.9 |
| 20260905221120 | 92 | 125 | 4.0 | 9.0 | 0.00 | 0.00 | 0.00 | 62 | 1012.7 |
| 20260905220631 | 92 | 103 | 4.0 | 11.0 | 0.00 | 0.00 | 0.00 | 61 | 1012.7 |
| 20260905220133 | 92 | 176 | 6.0 | 11.0 | 0.00 | 0.00 | 0.00 | 61 | 1012.7 |
| 20260905215616 | 93 | 150 | 6.0 | 11.0 | 0.00 | 0.00 | 0.00 | 60 | 1012.8 |
| 20260905215132 | 93 | 112 | 5.0 | 11.0 | 0.00 | 0.00 | 0.00 | 60 | 1012.9 |
| 20260905214656 | 93 | 136 | 5.0 | 8.0 | 0.00 | 0.00 | 0.00 | 60 | 1012.9 |
| 20260905214152 | 92 | 99 | 3.0 | 11.0 | 0.00 | 0.00 | 0.00 | 61 | 1013.0 |
| 20260905213616 | 92 | 151 | 5.0 | 11.0 | 0.00 | 0.00 | 0.00 | 61 | 1013.1 |
| 20260905213139 | 92 | 215 | 3.0 | 12.0 | 0.00 | 0.00 | 0.00 | 61 | 1013.1 |
| 20260905212622 | 92 | 96 | 4.0 | 12.0 | 0.00 | 0.00 | 0.00 | 61 | 1013.2 |
| 20260905212122 | 92 | 152 | 3.0 | 13.0 | 0.00 | 0.00 | 0.00 | 61 | 1013.2 |
| 20260905211625 | 92 | 108 | 6.0 | 14.0 | 0.00 | 0.00 | 0.00 | 59 | 1013.2 |
| 20260905211124 | 92 | 106 | 3.0 | 14.0 | 0.00 | 0.00 | 0.00 | 59 | 1013.3 |
| 20260905210627 | 93 | 139 | 7.0 | 12.0 | 0.00 | 0.00 | 0.00 | 58 | 1013.5 |
| 20260905210148 | 92 | 201 | 4.0 | 7.0 | 0.00 | 0.00 | 0.00 | 59 | 1013.6 |
| 20260905205629 | 93 | 175 | 4.0 | 9.0 | 0.00 | 0.00 | 0.00 | 58 | 1013.7 |
| 20260905205147 | 92 | 175 | 3.0 | 14.0 | 0.00 | 0.00 | 0.00 | 58 | 1013.8 |
| 20260905204630 | 93 | 123 | 5.0 | 14.0 | 0.00 | 0.00 | 0.00 | 58 | 1013.9 |
| 20260905204128 | 92 | 92 | 6.0 | 11.0 | 0.00 | 0.00 | 0.00 | 58 | 1014.0 |
| 20260905203613 | 92 | 164 | 4.0 | 11.0 | 0.00 | 0.00 | 0.00 | 58 | 1014.2 |
| 20260905203116 | 92 | 112 | 4.0 | 11.0 | 0.00 | 0.00 | 0.00 | 58 | 1014.3 |
| 20260905202622 | 92 | 90 | 5.0 | 11.0 | 0.00 | 0.00 | 0.00 | 58 | 1014.4 |
| 20260905202118 | 92 | 201 | 5.0 | 11.0 | 0.00 | 0.00 | 0.00 | 56 | 1014.4 |
| 20260905201625 | 92 | 53 | 1.0 | 8.0 | 0.00 | 0.00 | 0.00 | 58 | 1014.6 |
| 20260905201125 | 92 | 81 | 4.0 | 8.0 | 0.00 | 0.00 | 0.00 | 60 | 1014.7 |
| 20260905200632 | 91 | 61 | 3.0 | 13.0 | 0.00 | 0.00 | 0.00 | 61 | 1014.9 |
| 20260905200119 | 91 | 175 | 3.0 | 13.0 | 0.00 | 0.00 | 0.00 | 61 | 1015.1 |
| 20260905195622 | 91 | 70 | 6.0 | 11.0 | 0.00 | 0.00 | 0.00 | 59 | 1015.2 |
| 20260905195119 | 91 | 56 | 5.0 | 13.0 | 0.00 | 0.00 | 0.00 | 60 | 1015.3 |
| 20260905194623 | 91 | 90 | 4.0 | 14.0 | 0.00 | 0.00 | 0.00 | 60 | 1015.4 |
| 20260905194122 | 91 | 92 | 6.0 | 15.0 | 0.00 | 0.00 | 0.00 | 58 | 1015.4 |
| 20260905193623 | 90 | 203 | 4.0 | 15.0 | 0.00 | 0.00 | 0.00 | 58 | 1015.4 |
| 20260905193119 | 91 | 19 | 6.0 | 12.0 | 0.00 | 0.00 | 0.00 | 58 | 1015.3 |
| 20260905192622 | 91 | 46 | 5.0 | 12.0 | 0.00 | 0.00 | 0.00 | 58 | 1015.4 |
| 20260905192118 | 91 | 60 | 4.0 | 9.0 | 0.00 | 0.00 | 0.00 | 59 | 1015.5 |
| 20260905191641 | 90 | 47 | 2.0 | 13.0 | 0.00 | 0.00 | 0.00 | 62 | 1015.5 |
| 20260905191141 | 90 | 56 | 2.0 | 13.0 | 0.00 | 0.00 | 0.00 | 64 | 1015.7 |
| 20260905190624 | 90 | 14 | 4.0 | 14.0 | 0.00 | 0.00 | 0.00 | 65 | 1015.7 |
| 20260905190129 | 90 | 110 | 3.0 | 14.0 | 0.00 | 0.00 | 0.00 | 65 | 1015.9 |
| 20260905185617 | 90 | 166 | 4.0 | 12.0 | 0.00 | 0.00 | 0.00 | 65 | 1015.9 |
| 20260905185118 | 89 | 56 | 6.0 | 12.0 | 0.00 | 0.00 | 0.00 | 66 | 1016.1 |
| 20260905184622 | 89 | 90 | 6.0 | 11.0 | 0.00 | 0.00 | 0.00 | 65 | 1016.3 |
| 20260905184120 | 89 | 66 | 6.0 | 14.0 | 0.00 | 0.00 | 0.00 | 65 | 1016.5 |
| 20260905183622 | 89 | 80 | 7.0 | 14.0 | 0.00 | 0.00 | 0.00 | 65 | 1016.5 |
| 20260905183142 | 89 | 33 | 4.0 | 13.0 | 0.00 | 0.00 | 0.00 | 64 | 1016.6 |
| 20260905182645 | 89 | 63 | 7.0 | 13.0 | 0.00 | 0.00 | 0.00 | 63 | 1016.6 |
| 20260905182122 | 89 | 57 | 4.0 | 13.0 | 0.00 | 0.00 | 0.00 | 67 | 1016.6 |
| 20260905181626 | 89 | 100 | 2.0 | 13.0 | 0.00 | 0.00 | 0.00 | 68 | 1016.6 |
| 20260905181147 | 88 | 150 | 5.0 | 15.0 | 0.00 | 0.00 | 0.00 | 69 | 1016.7 |
| 20260905180614 | 88 | 91 | 10.0 | 15.0 | 0.00 | 0.00 | 0.00 | 69 | 1016.7 |
| 20260905180136 | 88 | 51 | 5.0 | 15.0 | 0.00 | 0.00 | 0.00 | 70 | 1016.6 |
| 20260905175619 | 87 | 3 | 3.0 | 15.0 | 0.00 | 0.00 | 0.00 | 70 | 1016.6 |
| 20260905175119 | 87 | 19 | 5.0 | 14.0 | 0.00 | 0.00 | 0.00 | 71 | 1016.5 |
| 20260905174646 | 87 | 101 | 11.0 | 14.0 | 0.00 | 0.00 | 0.00 | 71 | 1016.5 |
| 20260905174122 | 87 | 56 | 5.0 | 15.0 | 0.00 | 0.00 | 0.00 | 72 | 1016.6 |
| 20260905173627 | 87 | 119 | 7.0 | 15.0 | 0.00 | 0.00 | 0.00 | 72 | 1016.5 |
| 20260905173129 | 87 | 110 | 4.0 | 16.0 | 0.00 | 0.00 | 0.00 | 72 | 1016.5 |
| 20260905172617 | 87 | 40 | 5.0 | 16.0 | 0.00 | 0.00 | 0.00 | 72 | 1016.6 |
| 20260905172133 | 87 | 343 | 4.0 | 13.0 | 0.00 | 0.00 | 0.00 | 72 | 1016.6 |
| 20260905171621 | 86 | 88 | 7.0 | 18.0 | 0.00 | 0.00 | 0.00 | 72 | 1016.6 |
| 20260905171118 | 86 | 90 | 6.0 | 18.0 | 0.00 | 0.00 | 0.00 | 71 | 1016.6 |
| 20260905170621 | 86 | 67 | 4.0 | 15.0 | 0.00 | 0.00 | 0.00 | 72 | 1016.5 |
| 20260905170143 | 86 | 47 | 7.0 | 15.0 | 0.00 | 0.00 | 0.00 | 72 | 1016.6 |
| 20260905165626 | 87 | 39 | 4.0 | 13.0 | 0.00 | 0.00 | 0.00 | 71 | 1016.7 |
| 20260905165123 | 87 | 347 | 3.0 | 13.0 | 0.00 | 0.00 | 0.00 | 68 | 1016.6 |
| 20260905164626 | 88 | 98 | 6.0 | 10.0 | 0.00 | 0.00 | 0.00 | 66 | 1016.7 |
| 20260905164129 | 88 | 63 | 3.0 | 9.0 | 0.00 | 0.00 | 0.00 | 69 | 1016.7 |
| 20260905163634 | 88 | 70 | 4.0 | 9.0 | 0.00 | 0.00 | 0.00 | 68 | 1016.7 |
| 20260905163132 | 88 | 14 | 4.0 | 10.0 | 0.00 | 0.00 | 0.00 | 68 | 1016.8 |
| 20260905162655 | 88 | 4 | 4.0 | 10.0 | 0.00 | 0.00 | 0.00 | 69 | 1016.6 |
| 20260905162127 | 88 | 42 | 3.0 | 11.0 | 0.00 | 0.00 | 0.00 | 68 | 1016.8 |
| 20260905161617 | 88 | 65 | 4.0 | 10.0 | 0.00 | 0.00 | 0.00 | 66 | 1016.9 |
| 20260905161117 | 88 | 292 | 2.0 | 10.0 | 0.00 | 0.00 | 0.00 | 69 | 1016.7 |
| 20260905160619 | 88 | 86 | 4.0 | 7.0 | 0.00 | 0.00 | 0.00 | 69 | 1016.5 |
| 20260905160118 | 88 | 33 | 1.0 | 6.0 | 0.00 | 0.00 | 0.00 | 70 | 1016.5 |
| 20260905155641 | 88 | 87 | 3.0 | 6.0 | 0.00 | 0.00 | 0.00 | 67 | 1016.4 |
| 20260905155117 | 88 | 81 | 2.0 | 6.0 | 0.00 | 0.00 | 0.00 | 67 | 1016.4 |
| 20260905154621 | 88 | 74 | 3.0 | 6.0 | 0.00 | 0.00 | 0.00 | 66 | 1016.2 |
| 20260905154142 | 89 | 79 | 2.0 | 4.0 | 0.00 | 0.00 | 0.00 | 65 | 1016.3 |
| 20260905153628 | 89 | 56 | 2.0 | 5.0 | 0.00 | 0.00 | 0.00 | 64 | 1016.3 |
| 20260905153126 | 89 | 31 | 3.0 | 5.0 | 0.00 | 0.00 | 0.00 | 65 | 1016.3 |
| 20260905152629 | 88 | 83 | 3.0 | 4.0 | 0.00 | 0.00 | 0.00 | 65 | 1016.2 |
| 20260905152127 | 88 | 65 | 1.0 | 3.0 | 0.00 | 0.00 | 0.00 | 65 | 1016.1 |
| 20260905151651 | 88 | 124 | 1.0 | 2.0 | 0.00 | 0.00 | 0.00 | 66 | 1016.0 |
| 20260905151127 | 88 | 53 | 1.0 | 4.0 | 0.00 | 0.00 | 0.00 | 67 | 1015.0 |
| 20260905150634 | 88 | 56 | 2.0 | 4.0 | 0.00 | 0.00 | 0.00 | 67 | 1015.0 |
| 20260905150154 | 87 | 262 | 1.0 | 2.0 | 0.00 | 0.00 | 0.00 | 68 | 1015.0 |
| 20260905145657 | 87 | 204 | 1.0 | 2.0 | 0.00 | 0.00 | 0.00 | 66 | 1014.9 |
| 20260905145134 | 87 | 204 | 1.0 | 1.0 | 0.00 | 0.00 | 0.00 | 66 | 1014.8 |
| 20260905144636 | 87 | 204 | 0.0 | 2.0 | 0.00 | 0.00 | 0.00 | 66 | 1014.9 |
| 20260905144134 | 87 | 204 | 1.0 | 2.0 | 0.00 | 0.00 | 0.00 | 66 | 1014.8 |
| 20260905143637 | 87 | 204 | 0.0 | 4.0 | 0.00 | 0.00 | 0.00 | 66 | 1014.6 |
| 20260905143137 | 87 | 204 | 2.0 | 4.0 | 0.00 | 0.00 | 0.00 | 65 | 1014.4 |
| 20260905142623 | 87 | 103 | 0.0 | 2.0 | 0.00 | 0.00 | 0.00 | 67 | 1014.4 |
| 20260905142122 | 86 | 103 | 1.0 | 4.0 | 0.00 | 0.00 | 0.00 | 68 | 1014.5 |
| 20260905141627 | 85 | 103 | 1.0 | 4.0 | 0.00 | 0.00 | 0.00 | 68 | 1014.5 |
| 20260905141148 | 85 | 119 | 1.0 | 6.0 | 0.00 | 0.00 | 0.00 | 70 | 1014.3 |
| 20260905140635 | 84 | 149 | 0.0 | 7.0 | 0.00 | 0.00 | 0.00 | 71 | 1014.1 |
| 20260905140135 | 84 | 135 | 2.0 | 7.0 | 0.00 | 0.00 | 0.00 | 71 | 1014.0 |
| 20260905135619 | 83 | 156 | 3.0 | 6.0 | 0.00 | 0.00 | 0.00 | 72 | 1013.9 |
| 20260905135136 | 83 | 137 | 1.0 | 6.0 | 0.00 | 0.00 | 0.00 | 73 | 1014.0 |
| 20260905134618 | 83 | 144 | 3.0 | 5.0 | 0.00 | 0.00 | 0.00 | 74 | 1014.1 |
| 20260905134116 | 82 | 145 | 1.0 | 5.0 | 0.00 | 0.00 | 0.00 | 75 | 1014.3 |
| 20260905133623 | 82 | 80 | 0.0 | 3.0 | 0.00 | 0.00 | 0.00 | 76 | 1014.5 |
| 20260905133126 | 81 | 80 | 2.0 | 3.0 | 0.00 | 0.00 | 0.00 | 77 | 1014.5 |
| 20260905132629 | 80 | 63 | 0.0 | 2.0 | 0.00 | 0.00 | 0.00 | 79 | 1014.4 |
| 20260905132127 | 80 | 63 | 0.0 | 2.0 | 0.00 | 0.00 | 0.00 | 79 | 1014.2 |
| 20260905131629 | 79 | 63 | 1.0 | 2.0 | 0.00 | 0.00 | 0.00 | 80 | 1014.0 |
| 20260905131129 | 78 | 63 | 0.0 | 2.0 | 0.00 | 0.00 | 0.00 | 81 | 1013.9 |
| 20260905130633 | 78 | 63 | 0.0 | 2.0 | 0.00 | 0.00 | 0.00 | 82 | 1013.8 |
| 20260905130132 | 78 | 63 | 1.0 | 2.0 | 0.00 | 0.00 | 0.00 | 83 | 1013.8 |
| 20260905125652 | 78 | 63 | 0.0 | 1.0 | 0.00 | 0.00 | 0.00 | 82 | 1013.8 |
| 20260905125126 | 78 | 63 | 0.0 | 1.0 | 0.00 | 0.00 | 0.00 | 82 | 1013.8 |
| 20260905124631 | 78 | 63 | 0.0 | 2.0 | 0.00 | 0.00 | 0.00 | 82 | 1013.7 |
| 20260905124129 | 78 | 63 | 1.0 | 2.0 | 0.00 | 0.00 | 0.00 | 82 | 1013.7 |
| 20260905123633 | 78 | 63 | 0.0 | 2.0 | 0.00 | 0.00 | 0.00 | 81 | 1013.6 |
| 20260905123131 | 78 | 63 | 0.0 | 2.0 | 0.00 | 0.00 | 0.00 | 81 | 1013.6 |
| 20260905122657 | 78 | 63 | 1.0 | 2.0 | 0.00 | 0.00 | 0.00 | 81 | 1013.5 |
| 20260905122118 | 78 | 63 | 1.0 | 3.0 | 0.00 | 0.00 | 0.00 | 81 | 1013.4 |
| 20260905121622 | 78 | 63 | 1.0 | 3.0 | 0.00 | 0.00 | 0.00 | 81 | 1013.2 |
| 20260905121119 | 78 | 148 | 1.0 | 2.0 | 0.00 | 0.00 | 0.00 | 81 | 1013.2 |
| 20260905120627 | 78 | 148 | 0.0 | 1.0 | 0.00 | 0.00 | 0.00 | 81 | 1013.1 |
| 20260905120146 | 78 | 142 | 0.0 | 2.0 | 0.00 | 0.00 | 0.00 | 80 | 1013.0 |
| 20260905115628 | 78 | 142 | 1.0 | 2.0 | 0.00 | 0.00 | 0.00 | 80 | 1012.9 |
| 20260905115123 | 78 | 142 | 0.0 | 1.0 | 0.00 | 0.00 | 0.00 | 80 | 1012.9 |
| 20260905114627 | 78 | 142 | 0.0 | 2.0 | 0.00 | 0.00 | 0.00 | 79 | 1013.0 |
| 20260905114130 | 78 | 142 | 0.0 | 2.0 | 0.00 | 0.00 | 0.00 | 79 | 1013.1 |
| 20260905113616 | 78 | 142 | 0.0 | 1.0 | 0.00 | 0.00 | 0.00 | 79 | 1013.1 |
| 20260905113115 | 78 | 142 | 1.0 | 2.0 | 0.00 | 0.00 | 0.00 | 79 | 1013.1 |
| 20260905112622 | 78 | 142 | 0.0 | 2.0 | 0.00 | 0.00 | 0.00 | 79 | 1013.2 |
| 20260905112120 | 78 | 142 | 0.0 | 2.0 | 0.00 | 0.00 | 0.00 | 79 | 1013.1 |
| 20260905111623 | 78 | 142 | 0.0 | 2.0 | 0.00 | 0.00 | 0.00 | 78 | 1013.0 |
| 20260905111120 | 78 | 142 | 0.0 | 2.0 | 0.00 | 0.00 | 0.00 | 78 | 1012.9 |
| 20260905110632 | 78 | 142 | 1.0 | 4.0 | 0.00 | 0.00 | 0.00 | 78 | 1013.0 |
| 20260905110132 | 78 | 142 | 2.0 | 4.0 | 0.00 | 0.00 | 0.00 | 78 | 1012.9 |
| 20260905105635 | 78 | 156 | 0.0 | 2.0 | 0.00 | 0.00 | 0.00 | 78 | 1012.8 |
| 20260905105132 | 79 | 156 | 0.0 | 1.0 | 0.00 | 0.00 | 0.00 | 78 | 1012.8 |
| 20260905104637 | 79 | 156 | 0.0 | 1.0 | 0.00 | 0.00 | 0.00 | 78 | 1012.9 |
| 20260905104115 | 79 | 156 | 0.0 | 1.0 | 0.00 | 0.00 | 0.00 | 77 | 1012.8 |
| 20260905103622 | 79 | 156 | 0.0 | 1.0 | 0.00 | 0.00 | 0.00 | 77 | 1012.8 |
| 20260905103126 | 79 | 156 | 0.0 | 2.0 | 0.00 | 0.00 | 0.00 | 76 | 1012.6 |
| 20260905102633 | 79 | 156 | 0.0 | 2.0 | 0.00 | 0.00 | 0.00 | 76 | 1012.6 |
| 20260905102131 | 79 | 156 | 0.0 | 2.0 | 0.00 | 0.00 | 0.00 | 76 | 1012.6 |
| 20260905101654 | 79 | 156 | 0.0 | 2.0 | 0.00 | 0.00 | 0.00 | 76 | 1012.6 |
| 20260905101151 | 79 | 156 | 1.0 | 2.0 | 0.00 | 0.00 | 0.00 | 76 | 1012.6 |
| 20260905100653 | 80 | 156 | 0.0 | 2.0 | 0.00 | 0.00 | 0.00 | 76 | 1012.6 |
| 20260905100134 | 80 | 141 | 0.0 | 2.0 | 0.00 | 0.00 | 0.00 | 75 | 1012.5 |
| 20260905095618 | 80 | 141 | 1.0 | 4.0 | 0.00 | 0.00 | 0.00 | 76 | 1012.5 |
| 20260905095117 | 80 | 183 | 0.0 | 4.0 | 0.00 | 0.00 | 0.00 | 75 | 1012.4 |
| 20260905094626 | 80 | 183 | 0.0 | 1.0 | 0.00 | 0.00 | 0.00 | 75 | 1012.3 |
| 20260905094124 | 80 | 183 | 0.0 | 4.0 | 0.00 | 0.00 | 0.00 | 75 | 1012.3 |
| 20260905093628 | 80 | 152 | 0.0 | 4.0 | 0.00 | 0.00 | 0.00 | 75 | 1012.2 |
| 20260905093126 | 80 | 148 | 1.0 | 4.0 | 0.00 | 0.00 | 0.00 | 75 | 1012.1 |
| 20260905092629 | 80 | 178 | 1.0 | 4.0 | 0.00 | 0.00 | 0.00 | 76 | 1012.1 |
| 20260905092127 | 80 | 172 | 1.0 | 4.0 | 0.00 | 0.00 | 0.00 | 76 | 1012.1 |
| 20260905091631 | 80 | 156 | 0.0 | 2.0 | 0.00 | 0.00 | 0.00 | 76 | 1012.1 |
| 20260905091128 | 80 | 156 | 1.0 | 2.0 | 0.00 | 0.00 | 0.00 | 76 | 1012.1 |
| 20260905090635 | 80 | 156 | 0.0 | 2.0 | 0.00 | 0.00 | 0.00 | 76 | 1013.1 |
| 20260905090134 | 79 | 156 | 0.0 | 2.0 | 0.00 | 0.00 | 0.00 | 77 | 1013.2 |
| 20260905085617 | 79 | 156 | 0.0 | 1.0 | 0.00 | 0.00 | 0.00 | 77 | 1013.2 |
| 20260905085136 | 79 | 156 | 0.0 | 2.0 | 0.00 | 0.00 | 0.00 | 78 | 1013.3 |
| 20260905084619 | 79 | 156 | 0.0 | 2.0 | 0.00 | 0.00 | 0.00 | 78 | 1013.3 |
| 20260905084119 | 79 | 156 | 0.0 | 1.0 | 0.00 | 0.00 | 0.00 | 78 | 1013.4 |
| 20260905083648 | 79 | 156 | 0.0 | 1.0 | 0.00 | 0.00 | 0.00 | 78 | 1013.4 |
| 20260905083130 | 79 | 156 | 0.0 | 0.0 | 0.00 | 0.00 | 0.00 | 78 | 1013.5 |
| 20260905082636 | 79 | 156 | 0.0 | 0.0 | 0.00 | 0.00 | 0.00 | 78 | 1013.5 |
| 20260905082135 | 80 | 156 | 0.0 | 1.0 | 0.00 | 0.00 | 0.00 | 78 | 1013.5 |
| 20260905081617 | 80 | 156 | 0.0 | 1.0 | 0.00 | 0.00 | 0.00 | 78 | 1013.6 |
| 20260905081123 | 80 | 156 | 0.0 | 1.0 | 0.00 | 0.00 | 0.00 | 78 | 1013.5 |
| 20260905080626 | 80 | 156 | 0.0 | 1.0 | 0.00 | 0.00 | 0.00 | 78 | 1013.6 |
| 20260905080126 | 80 | 156 | 0.0 | 1.0 | 0.00 | 0.00 | 0.00 | 77 | 1013.6 |
| 20260905075617 | 80 | 156 | 0.0 | 1.0 | 0.00 | 0.00 | 0.00 | 77 | 1013.7 |
| 20260905075137 | 80 | 156 | 0.0 | 1.0 | 0.00 | 0.00 | 0.00 | 77 | 1013.8 |
| 20260905074623 | 80 | 156 | 0.0 | 2.0 | 0.00 | 0.00 | 0.00 | 77 | 1013.9 |
| 20260905074121 | 80 | 156 | 0.0 | 2.0 | 0.00 | 0.00 | 0.00 | 77 | 1013.9 |
| 20260905073645 | 81 | 156 | 0.0 | 0.0 | 0.00 | 0.00 | 0.00 | 77 | 1013.9 |
| 20260905073126 | 81 | 156 | 0.0 | 0.0 | 0.00 | 0.00 | 0.00 | 76 | 1013.9 |
| 20260905072614 | 81 | 156 | 0.0 | 0.0 | 0.00 | 0.00 | 0.00 | 76 | 1014.0 |
| 20260905072135 | 81 | 156 | 0.0 | 1.0 | 0.00 | 0.00 | 0.00 | 76 | 1014.0 |
| 20260905071618 | 81 | 156 | 0.0 | 1.0 | 0.00 | 0.00 | 0.00 | 76 | 1013.9 |
| 20260905071135 | 82 | 156 | 0.0 | 1.0 | 0.00 | 0.00 | 0.00 | 75 | 1014.0 |
| 20260905070618 | 82 | 156 | 0.0 | 0.0 | 0.00 | 0.00 | 0.00 | 75 | 1014.0 |
| 20260905070118 | 82 | 156 | 0.0 | 0.0 | 0.00 | 0.00 | 0.00 | 74 | 1014.0 |
| 20260905065626 | 83 | 156 | 0.0 | 0.0 | 0.00 | 0.00 | 0.00 | 74 | 1014.0 |
| 20260905065149 | 83 | 156 | 0.0 | 0.0 | 0.00 | 0.00 | 0.00 | 74 | 1014.0 |
| 20260905064632 | 83 | 156 | 0.0 | 0.0 | 0.00 | 0.00 | 0.00 | 73 | 1014.1 |
| 20260905064129 | 83 | 156 | 0.0 | 1.0 | 0.00 | 0.00 | 0.00 | 73 | 1014.1 |
| 20260905063633 | 84 | 156 | 0.0 | 5.0 | 0.00 | 0.00 | 0.00 | 72 | 1014.1 |
| 20260905063132 | 84 | 156 | 1.0 | 5.0 | 0.00 | 0.00 | 0.00 | 72 | 1014.1 |
| 20260905062636 | 84 | 206 | 1.0 | 6.0 | 0.00 | 0.00 | 0.00 | 71 | 1014.1 |
| 20260905062135 | 84 | 117 | 0.0 | 6.0 | 0.00 | 0.00 | 0.00 | 71 | 1014.1 |
| 20260905061619 | 84 | 291 | 4.0 | 6.0 | 0.00 | 0.00 | 0.00 | 71 | 1014.1 |
| 20260905061119 | 84 | 142 | 0.0 | 4.0 | 0.00 | 0.00 | 0.00 | 72 | 1014.1 |
| 20260905060646 | 84 | 250 | 0.0 | 3.0 | 0.00 | 0.00 | 0.00 | 72 | 1014.1 |
| 20260905060144 | 84 | 109 | 1.0 | 4.0 | 0.00 | 0.00 | 0.00 | 72 | 1014.1 |
| 20260905055629 | 84 | 185 | 1.0 | 4.0 | 0.00 | 0.00 | 0.00 | 73 | 1014.1 |
| 20260905055126 | 84 | 140 | 0.0 | 2.0 | 0.00 | 0.00 | 0.00 | 74 | 1014.1 |
| 20260905054633 | 84 | 140 | 0.0 | 3.0 | 0.00 | 0.00 | 0.00 | 74 | 1014.1 |
| 20260905054131 | 84 | 140 | 1.0 | 3.0 | 0.00 | 0.00 | 0.00 | 74 | 1014.1 |
| 20260905053616 | 84 | 174 | 0.0 | 2.0 | 0.00 | 0.00 | 0.00 | 74 | 1014.1 |
| 20260905053135 | 84 | 218 | 0.0 | 2.0 | 0.00 | 0.00 | 0.00 | 74 | 1014.0 |
| 20260905052621 | 84 | 179 | 2.0 | 3.0 | 0.00 | 0.00 | 0.00 | 74 | 1013.9 |
| 20260905052142 | 84 | 209 | 1.0 | 3.0 | 0.00 | 0.00 | 0.00 | 75 | 1013.9 |
| 20260905051626 | 84 | 196 | 1.0 | 3.0 | 0.00 | 0.00 | 0.00 | 74 | 1013.9 |
| 20260905051124 | 84 | 196 | 0.0 | 3.0 | 0.00 | 0.00 | 0.00 | 74 | 1013.9 |
| 20260905050630 | 84 | 196 | 1.0 | 3.0 | 0.00 | 0.00 | 0.00 | 74 | 1013.9 |
| 20260905050151 | 84 | 196 | 0.0 | 3.0 | 0.00 | 0.00 | 0.00 | 74 | 1013.8 |
| 20260905045625 | 85 | 196 | 1.0 | 3.0 | 0.00 | 0.00 | 0.00 | 74 | 1013.9 |
| 20260905045123 | 85 | 195 | 0.0 | 3.0 | 0.00 | 0.00 | 0.00 | 74 | 1013.7 |
| 20260905044626 | 85 | 260 | 0.0 | 1.0 | 0.00 | 0.00 | 0.00 | 74 | 1013.7 |
| 20260905044123 | 85 | 260 | 0.0 | 2.0 | 0.00 | 0.00 | 0.00 | 74 | 1013.6 |
| 20260905043627 | 85 | 260 | 0.0 | 6.0 | 0.00 | 0.00 | 0.00 | 73 | 1013.6 |
| 20260905043125 | 85 | 260 | 0.0 | 6.0 | 0.00 | 0.00 | 0.00 | 73 | 1013.6 |
| 20260905042629 | 86 | 184 | 1.0 | 4.0 | 0.00 | 0.00 | 0.00 | 73 | 1013.5 |
| 20260905042126 | 86 | 180 | 1.0 | 3.0 | 0.00 | 0.00 | 0.00 | 72 | 1013.5 |
| 20260905041632 | 86 | 180 | 0.0 | 3.0 | 0.00 | 0.00 | 0.00 | 72 | 1013.4 |
| 20260905041134 | 86 | 124 | 1.0 | 2.0 | 0.00 | 0.00 | 0.00 | 72 | 1013.5 |
| 20260905040621 | 86 | 124 | 0.0 | 4.0 | 0.00 | 0.00 | 0.00 | 72 | 1013.4 |
| 20260905040122 | 86 | 124 | 0.0 | 7.0 | 0.00 | 0.00 | 0.00 | 72 | 1013.4 |
| 20260905035631 | 86 | 197 | 1.0 | 4.0 | 0.00 | 0.00 | 0.00 | 72 | 1013.4 |
| 20260905035129 | 87 | 150 | 2.0 | 4.0 | 0.00 | 0.00 | 0.00 | 72 | 1013.4 |
| 20260905034632 | 87 | 178 | 1.0 | 4.0 | 0.00 | 0.00 | 0.00 | 72 | 1013.3 |
| 20260905034150 | 87 | 187 | 0.0 | 3.0 | 0.00 | 0.00 | 0.00 | 72 | 1013.3 |
| 20260905033633 | 87 | 240 | 0.0 | 3.0 | 0.00 | 0.00 | 0.00 | 72 | 1013.3 |
| 20260905033116 | 87 | 233 | 0.0 | 5.0 | 0.00 | 0.00 | 0.00 | 72 | 1013.2 |
| 20260905032623 | 87 | 233 | 3.0 | 5.0 | 0.00 | 0.00 | 0.00 | 71 | 1013.2 |
| 20260905032121 | 88 | 185 | 1.0 | 5.0 | 0.00 | 0.00 | 0.00 | 71 | 1013.2 |
| 20260905031645 | 88 | 269 | 0.0 | 5.0 | 0.00 | 0.00 | 0.00 | 71 | 1013.1 |
| 20260905031121 | 88 | 252 | 2.0 | 3.0 | 0.00 | 0.00 | 0.00 | 71 | 1013.1 |
| 20260905030624 | 88 | 252 | 0.0 | 3.0 | 0.00 | 0.00 | 0.00 | 70 | 1013.0 |
| 20260905030127 | 88 | 250 | 0.0 | 3.0 | 0.00 | 0.00 | 0.00 | 70 | 1013.0 |
| 20260905025632 | 88 | 229 | 1.0 | 3.0 | 0.00 | 0.00 | 0.00 | 69 | 1012.9 |
| 20260905025154 | 89 | 212 | 0.0 | 4.0 | 0.00 | 0.00 | 0.00 | 69 | 1012.8 |
| 20260905024617 | 89 | 175 | 0.0 | 4.0 | 0.00 | 0.00 | 0.00 | 69 | 1012.8 |
| 20260905024137 | 89 | 175 | 0.0 | 4.0 | 0.00 | 0.00 | 0.00 | 69 | 1012.8 |
| 20260905023623 | 89 | 185 | 1.0 | 4.0 | 0.00 | 0.00 | 0.00 | 69 | 1012.7 |
| 20260905023128 | 89 | 185 | 0.0 | 2.0 | 0.00 | 0.00 | 0.00 | 69 | 1012.8 |
| 20260905022616 | 89 | 160 | 0.0 | 2.0 | 0.00 | 0.00 | 0.00 | 68 | 1012.8 |
| 20260905022136 | 89 | 160 | 1.0 | 5.0 | 0.00 | 0.00 | 0.00 | 69 | 1012.8 |
| 20260905021639 | 89 | 160 | 0.0 | 5.0 | 0.00 | 0.00 | 0.00 | 69 | 1012.8 |
| 20260905021116 | 89 | 185 | 1.0 | 2.0 | 0.00 | 0.00 | 0.00 | 69 | 1012.8 |
| 20260905020628 | 89 | 131 | 1.0 | 2.0 | 0.00 | 0.00 | 0.00 | 70 | 1012.8 |
| 20260905020146 | 89 | 131 | 1.0 | 3.0 | 0.00 | 0.00 | 0.00 | 70 | 1012.8 |
| 20260905015629 | 89 | 199 | 2.0 | 3.0 | 0.00 | 0.00 | 0.00 | 70 | 1012.8 |
| 20260905015127 | 89 | 125 | 0.0 | 0.0 | 0.00 | 0.00 | 0.00 | 70 | 1012.6 |
| 20260905014633 | 89 | 125 | 0.0 | 0.0 | 0.00 | 0.00 | 0.00 | 70 | 1012.5 |
| 20260905014133 | 90 | 125 | 0.0 | 0.0 | 0.00 | 0.00 | 0.00 | 70 | 1012.5 |
| 20260905013615 | 90 | 125 | 0.0 | 0.0 | 0.00 | 0.00 | 0.00 | 69 | 1012.4 |
| 20260905013138 | 90 | 125 | 0.0 | 0.0 | 0.00 | 0.00 | 0.00 | 69 | 1012.3 |
| 20260905012619 | 91 | 125 | 0.0 | 0.0 | 0.00 | 0.00 | 0.00 | 68 | 1012.3 |
| 20260905012117 | 91 | 125 | 0.0 | 0.0 | 0.00 | 0.00 | 0.00 | 67 | 1012.3 |
| 20260905011620 | 91 | 125 | 0.0 | 1.0 | 0.00 | 0.00 | 0.00 | 67 | 1012.2 |
| 20260905011117 | 91 | 125 | 0.0 | 1.0 | 0.00 | 0.00 | 0.00 | 67 | 1012.2 |
| 20260905010621 | 92 | 125 | 1.0 | 1.0 | 0.00 | 0.00 | 0.00 | 66 | 1012.3 |
| 20260905010120 | 92 | 125 | 0.0 | 1.0 | 0.00 | 0.00 | 0.00 | 66 | 1012.2 |
| 20260905005624 | 92 | 125 | 0.0 | 2.0 | 0.00 | 0.00 | 0.00 | 65 | 1012.1 |
| 20260905005123 | 92 | 125 | 0.0 | 2.0 | 0.00 | 0.00 | 0.00 | 65 | 1012.1 |
| 20260905004627 | 93 | 125 | 0.0 | 1.0 | 0.00 | 0.00 | 0.00 | 65 | 1012.1 |
| 20260905004130 | 93 | 125 | 0.0 | 0.0 | 0.00 | 0.00 | 0.00 | 65 | 1012.1 |
| 20260905003617 | 93 | 125 | 0.0 | 2.0 | 0.00 | 0.00 | 0.00 | 65 | 1012.2 |
| 20260905003121 | 93 | 125 | 0.0 | 2.0 | 0.00 | 0.00 | 0.00 | 64 | 1012.1 |